KD8PH Weather Reports


Display with metric or nautical units.
time (UTC)temp
F
wind
direction
speed
MPH
gust
MPH
rain 1hr
in
rain 24hr
in
rain mn
in
humidity
%
barometer
mb
20260831193022 88 0.0 0.0 0.00 0.00 0.00 62 1017.9
20260831192030 88 0.0 0.0 0.00 0.00 0.00 63 1017.9
20260831191022 88 0.0 0.0 0.00 0.00 0.00 64 1017.9
20260831190022 88 0.0 0.0 0.00 0.00 0.00 63 1018.0
20260831185022 88 0.0 0.0 0.00 0.00 0.00 63 1018.2
20260831184022 88 0.0 0.0 0.00 0.00 0.00 65 1018.4
20260831183022 87 0.0 0.0 0.00 0.00 0.00 63 1018.4
20260831182022 87 0.0 0.0 0.00 0.00 0.00 67 1018.6
20260831181022 87 0.0 0.0 0.00 0.00 0.00 64 1018.6
20260831180023 87 0.0 0.0 0.00 0.00 0.00 65 1018.7
20260831175022 87 0.0 0.0 0.00 0.00 0.00 66 1018.7
20260831174022 86 0.0 0.0 0.00 0.00 0.00 66 1018.8
20260831173022 86 0.0 0.0 0.00 0.00 0.00 67 1019.1
20260831172022 86 0.0 0.0 0.00 0.00 0.00 70 1019.2
20260831171022 86 0.0 0.0 0.00 0.00 0.00 68 1019.2
20260831170031 85 0.0 0.0 0.00 0.00 0.00 70 1019.3
20260831165022 85 0.0 0.0 0.00 0.00 0.00 69 1019.4
20260831164023 86 0.0 0.0 0.00 0.00 0.00 68 1019.5
20260831163022 86 0.0 0.0 0.00 0.00 0.00 69 1019.6
20260831162022 84 0.0 0.0 0.00 0.00 0.00 70 1019.6
20260831161022 84 0.0 0.0 0.00 0.00 0.00 75 1019.7
20260831160022 84 0.0 0.0 0.00 0.00 0.00 78 1019.8
20260831155022 84 0.0 0.0 0.00 0.00 0.00 76 1019.8
20260831154022 84 0.0 0.0 0.00 0.00 0.00 74 1019.9
20260831153022 83 0.0 0.0 0.00 0.00 0.00 74 1019.8
20260831152022 83 0.0 0.0 0.00 0.00 0.00 77 1019.7
20260831151022 82 0.0 0.0 0.00 0.00 0.00 78 1019.7
20260831150022 82 0.0 0.0 0.00 0.00 0.00 80 1019.9
20260831145022 81 0.0 0.0 0.00 0.00 0.00 80 1019.8
20260831144021 81 0.0 0.0 0.00 0.00 0.00 82 1019.8
20260831143022 81 0.0 0.0 0.00 0.00 0.00 82 1019.8
20260831142022 81 0.0 0.0 0.00 0.00 0.00 81 1019.8
20260831141021 81 0.0 0.0 0.00 0.00 0.00 80 1019.7
20260831140021 80 0.0 0.0 0.00 0.00 0.00 81 1019.8
20260831135021 80 0.0 0.0 0.00 0.00 0.00 83 1019.8
20260831134021 80 0.0 0.0 0.00 0.00 0.00 83 1019.9
20260831133024 79 0.0 0.0 0.00 0.00 0.00 84 1019.9
20260831132021 79 0.0 0.0 0.00 0.00 0.00 85 1019.8
20260831131021 79 0.0 0.0 0.00 0.00 0.00 85 1019.8
20260831130021 78 0.0 0.0 0.00 0.00 0.00 87 1019.7
20260831125021 78 0.0 0.0 0.00 0.00 0.00 88 1019.7
20260831124021 77 0.0 0.0 0.00 0.00 0.00 89 1019.5
20260831123021 76 0.0 0.0 0.00 0.00 0.00 90 1019.3
20260831122020 76 0.0 0.0 0.00 0.00 0.00 90 1019.2
20260831121020 75 0.0 0.0 0.00 0.00 0.00 90 1019.1
20260831120020 75 0.0 0.0 0.00 0.00 0.00 90 1019.0
20260831115020 75 0.0 0.0 0.00 0.00 0.00 90 1018.8
20260831114020 75 0.0 0.0 0.00 0.00 0.00 90 1018.7
20260831113021 75 0.0 0.0 0.00 0.00 0.00 90 1018.6
20260831112021 75 0.0 0.0 0.00 0.00 0.00 90 1018.5
20260831111021 75 0.0 0.0 0.00 0.00 0.00 89 1018.4
20260831110023 76 0.0 0.0 0.00 0.00 0.00 89 1018.3
20260831105023 76 0.0 0.0 0.00 0.00 0.00 89 1018.3
20260831104021 76 0.0 0.0 0.00 0.00 0.00 89 1018.1
20260831103021 76 0.0 0.0 0.00 0.00 0.00 89 1018.1
20260831102024 76 0.0 0.0 0.00 0.00 0.00 89 1017.9
20260831101021 76 0.0 0.0 0.00 0.00 0.00 89 1017.7
20260831100021 76 0.0 0.0 0.00 0.00 0.00 89 1017.6
20260831095021 76 0.0 0.0 0.00 0.00 0.00 89 1017.6
20260831094022 76 0.0 0.0 0.00 0.00 0.00 89 1017.4
20260831093021 76 0.0 0.0 0.00 0.00 0.00 89 1017.5
20260831092021 76 0.0 0.0 0.00 0.00 0.00 89 1017.6
20260831091023 76 0.0 0.0 0.00 0.00 0.00 89 1017.5
20260831090023 76 0.0 0.0 0.00 0.00 0.00 89 1017.5
20260831085023 76 0.0 0.0 0.00 0.00 0.00 89 1017.5
20260831084023 76 0.0 0.0 0.00 0.00 0.00 89 1017.5
20260831083023 76 0.0 0.0 0.00 0.00 0.00 88 1017.5
20260831082023 76 0.0 0.0 0.00 0.00 0.00 89 1017.5
20260831081023 76 0.0 0.0 0.00 0.00 0.00 89 1017.5
20260831080023 76 0.0 0.0 0.00 0.00 0.00 89 1017.5
20260831075023 75 0.0 0.0 0.00 0.00 0.00 89 1017.3
20260831074023 75 0.0 0.0 0.00 0.00 0.00 89 1017.2
20260831073031 75 0.0 0.0 0.00 0.00 0.00 89 1017.4
20260831072024 75 0.0 0.0 0.00 0.00 0.00 90 1017.4
20260831071023 75 0.0 0.0 0.00 0.00 0.00 90 1017.2
20260831070024 75 0.0 0.0 0.00 0.00 0.00 90 1017.2
20260831065023 75 0.0 0.0 0.00 0.00 0.00 90 1017.1
20260831064023 75 0.0 0.0 0.00 0.00 0.00 90 1017.1
20260831063022 76 0.0 0.0 0.00 0.00 0.00 90 1017.2
20260831062023 76 0.0 0.0 0.00 0.00 0.00 90 1017.3
20260831061022 76 0.0 0.0 0.00 0.00 0.00 90 1017.3
20260831060022 76 0.0 0.0 0.00 0.00 0.00 90 1017.3
20260831055023 76 0.0 0.0 0.00 0.00 0.00 89 1017.3
20260831054022 76 0.0 0.0 0.00 0.00 0.00 89 1017.5
20260831053022 76 0.0 0.0 0.00 0.00 0.00 89 1017.4
20260831052022 76 0.0 0.0 0.00 0.00 0.00 89 1017.3
20260831051023 76 0.0 0.0 0.00 0.00 0.00 89 1017.0
20260831050022 76 0.0 0.0 0.00 0.00 0.00 89 1017.0
20260831045022 77 0.0 0.0 0.00 0.00 0.00 88 1017.1
20260831044022 77 0.0 0.0 0.00 0.00 0.00 88 1017.2
20260831043022 77 0.0 0.0 0.00 0.00 0.00 88 1017.1
20260831042022 77 0.0 0.0 0.00 0.00 0.00 87 1017.2
20260831041022 77 0.0 0.0 0.00 0.00 0.00 87 1017.2
20260831040022 77 0.0 0.0 0.00 0.00 0.00 87 1017.3
20260831035022 77 0.0 0.0 0.00 0.00 0.00 87 1017.4
20260831034022 77 0.0 0.0 0.00 0.00 0.00 86 1017.4
20260831033022 78 0.0 0.0 0.00 0.00 0.00 86 1017.5
20260831032022 78 0.0 0.0 0.00 0.00 0.00 86 1017.6
20260831031022 78 0.0 0.0 0.00 0.00 0.00 86 1017.5
20260831030023 78 0.0 0.0 0.00 0.00 0.00 86 1017.6
20260831025022 78 0.0 0.0 0.00 0.00 0.00 85 1017.4
20260831024022 78 0.0 0.0 0.00 0.00 0.00 85 1017.3
20260831023023 79 0.0 0.0 0.00 0.00 0.00 85 1017.3
20260831022022 79 0.0 0.0 0.00 0.00 0.00 85 1017.3
20260831021022 79 0.0 0.0 0.00 0.00 0.00 83 1017.2
20260831020022 80 0.0 0.0 0.00 0.00 0.00 83 1017.2
20260831015021 80 0.0 0.0 0.00 0.00 0.00 83 1017.0
20260831014030 80 0.0 0.0 0.00 0.00 0.00 82 1016.8
20260831013021 80 0.0 0.0 0.00 0.00 0.00 82 1016.6
20260831012025 81 0.0 0.0 0.00 0.00 0.00 80 1016.6
20260831011021 81 0.0 0.0 0.00 0.00 0.00 80 1016.4
20260831010021 82 0.0 0.0 0.00 0.00 0.00 80 1016.5
20260831005021 82 0.0 0.0 0.00 0.00 0.00 80 1016.4
20260831004021 83 0.0 0.0 0.00 0.00 0.00 78 1016.4
20260831003021 83 0.0 0.0 0.00 0.00 0.00 76 1016.4
20260831002021 84 0.0 0.0 0.00 0.00 0.00 73 1016.3
20260831001022 85 0.0 0.0 0.00 0.00 0.00 74 1016.4
20260831000021 86 0.0 0.0 0.00 0.00 0.00 70 1016.3
20260830235024 87 0.0 0.0 0.00 0.00 0.00 66 1016.4
20260830234020 87 0.0 0.0 0.00 0.00 0.00 66 1016.3
20260830233020 87 0.0 0.0 0.00 0.00 0.00 64 1016.4
20260830232021 88 0.0 0.0 0.00 0.00 0.00 64 1016.3
20260830231021 88 0.0 0.0 0.00 0.00 0.00 64 1016.4
20260830230020 88 0.0 0.0 0.00 0.00 0.00 64 1016.4
20260830225020 88 0.0 0.0 0.00 0.00 0.00 62 1016.3
20260830224020 88 0.0 0.0 0.00 0.00 0.00 62 1016.4
20260830223027 88 0.0 0.0 0.00 0.00 0.00 62 1016.4
20260830222020 88 0.0 0.0 0.00 0.00 0.00 63 1016.4
20260830221020 88 0.0 0.0 0.00 0.00 0.00 62 1016.4
20260830220020 88 0.0 0.0 0.00 0.00 0.00 63 1016.4
20260830215023 88 0.0 0.0 0.00 0.00 0.00 63 1016.4
20260830214021 89 0.0 0.0 0.00 0.00 0.00 63 1016.5
20260830213021 89 0.0 0.0 0.00 0.00 0.00 62 1016.5
20260830212024 89 0.0 0.0 0.00 0.00 0.00 63 1016.5
20260830211020 89 0.0 0.0 0.00 0.00 0.00 60 1016.6
20260830210021 89 0.0 0.0 0.00 0.00 0.00 60 1016.7
20260830205021 89 0.0 0.0 0.00 0.00 0.00 62 1016.8
20260830204021 89 0.0 0.0 0.00 0.00 0.00 62 1016.8
20260830203021 88 0.0 0.0 0.00 0.00 0.00 61 1017.0
20260830202023 88 0.0 0.0 0.00 0.00 0.00 62 1017.1
20260830201023 88 0.0 0.0 0.00 0.00 0.00 63 1017.3
20260830200023 88 0.0 0.0 0.00 0.00 0.00 61 1017.4
20260830195023 87 0.0 0.0 0.00 0.00 0.00 61 1017.5
20260830194023 87 0.0 0.0 0.00 0.00 0.00 63 1017.6